Weather reports worldwide

Advertisment
Tarbes/Ossun, France (7621): temperature & dewpoint: 14.01.2021 13:00:00 - 20.01.2021 13:00:00 (CET)Tarbes/Ossun, France (7621): temperature 5cm: 14.01.2021 13:00:00 - 20.01.2021 13:00:00 (CET)Tarbes/Ossun, France (7621): temperature -20cm & temperature -100cm: 14.01.2021 13:00:00 - 20.01.2021 13:00:00 (CET)Tarbes/Ossun, France (7621): wind speed & gusts: 14.01.2021 13:00:00 - 20.01.2021 13:00:00 (CET)Tarbes/Ossun, France (7621): wind direction: 14.01.2021 13:00:00 - 20.01.2021 13:00:00 (CET)Tarbes/Ossun, France (7621): reduced air pressure: 14.01.2021 13:00:00 - 20.01.2021 13:00:00 (CET)Tarbes/Ossun, France (7621): visibility: 14.01.2021 13:00:00 - 20.01.2021 13:00:00 (CET)Tarbes/Ossun, France (7621): sunshine duration: 14.01.2021 13:00:00 - 20.01.2021 13:00:00 (CET)Tarbes/Ossun, France (7621): precipitation: 14.01.2021 13:00:00 - 20.01.2021 13:00:00 (CET)
Date & Time tt [°C] td [°C] tt 5cm [°C] tt -20cm [°C] tt -100cm [°C] ff [km/h] ff [kn] fx [km/h] fx [kn] dd ppp [hPa] vv [km] sd [min] rr [mm]
20.01.2021 13:00:00 16,6 -3,5 17,0 6,0 8,1 32 17 52 28 S 1002,4 38 47 0,0
20.01.2021 12:00:00 17,5 -6,4 6,9 6,1 8,1 30 16 54 29 SSW 1003,8 31 17 0,0
20.01.2021 11:00:00 8,7 -2,0 3,8 6,1 8,1 13 7 20 11 S 1005,3 60 0 0,0
20.01.2021 10:00:00 5,5 -1,4 1,0 6,1 8,1 10 6 22 12 SE 1006,1 41 0 0,0
20.01.2021 09:00:00 2,8 -1,2 -0,4 6,1 8,1 5 3 11 6 NNW 1007,4 42 0 0,0
20.01.2021 08:00:00 2,8 -1,9 -0,6 6,2 8,1 6 3 18 10 S 1007,4 46 0 0,0
20.01.2021 07:00:00 3,9 -2,1 1,8 6,1 8,1 12 6 38 21 NNE 1007,7 38 0 0,0
20.01.2021 06:00:00 16,4 -9,5 10,2 6,1 8,1 22 12 47 26 SSW 1005,7 60 0 0,0
20.01.2021 05:00:00 14,9 -9,3 11,0 6,2 8,1 20 11 49 26 S 1007,1 60 0 0,0
20.01.2021 04:00:00 15,2 -8,3 9,6 6,2 8,1 23 13 40 22 SSW 1008,0 60 0 0,0
20.01.2021 03:00:00 13,2 -6,4 9,1 6,2 8,1 18 10 44 24 S 1009,2 60 0 0,0
20.01.2021 02:00:00 14,4 -7,1 6,9 6,3 8,1 26 14 45 25 S 1009,8 60 0 0,0
20.01.2021 01:00:00 10,0 -6,0 4,5 6,3 8,1 15 8 25 13 SE 1011,7 60 0 0,0
20.01.2021 00:00:00 7,0 -4,4 0,7 6,3 8,1 16 9 24 13 SE 1013,2 58 0 0,0
19.01.2021 23:00:00 5,6 -3,8 1,6 6,3 8,1 11 6 22 12 SSE 1014,5 59 0 0,0
19.01.2021 22:00:00 6,8 -3,7 -1,1 6,4 8,1 14 8 22 12 SE 1015,1 58 0 0,0
19.01.2021 21:00:00 3,8 -0,8 -1,2 6,3 8,1 7 4 16 9 SSE 1016,4 29 0 0,0
19.01.2021 20:00:00 5,0 0,7 0,3 6,2 8,1 8 4 17 9 SSE 1017,2 31 0 0,0
19.01.2021 19:00:00 5,7 0,6 - - - 8 4 18 10 SSW 1017,2 50 - -
19.01.2021 18:00:00 8,6 1,9 3,5 6,0 8,1 7 4 13 7 SSW 1016,9 44 31 0,0
19.01.2021 17:00:00 14,8 4,8 12,0 5,9 8,1 9 5 12 7 N 1016,3 57 60 0,0
19.01.2021 16:00:00 17,5 0,6 22,4 5,8 8,1 4 2 16 9 NNE 1016,4 46 60 0,0
19.01.2021 15:00:00 17,4 -2,3 22,3 5,7 8,1 8 4 18 10 E 1016,4 60 60 0,0
19.01.2021 14:00:00 16,5 -1,2 22,9 5,6 8,1 9 5 16 9 NE 1017,6 41 60 0,0
19.01.2021 13:00:00 15,1 2,6 22,7 5,6 8,1 4 2 9 5 NNE 1019,1 47 60 0,0
19.01.2021 12:00:00 14,3 5,1 16,4 5,7 8,1 4 2 13 7 NNE 1020,3 52 60 0,0
19.01.2021 11:00:00 11,5 0,9 9,9 5,7 8,1 5 3 11 6 S 1021,2 53 60 0,0
19.01.2021 10:00:00 6,8 -0,9 -0,3 5,8 8,1 10 6 13 7 SSE 1022,0 48 60 0,0
19.01.2021 09:00:00 1,9 -2,1 -3,2 5,9 8,1 10 5 14 8 S 1023,0 51 10 0,0
19.01.2021 08:00:00 0,8 -2,1 -3,6 6,0 8,1 9 5 15 8 SSE 1023,5 60 0 0,0
19.01.2021 07:00:00 -0,5 -2,6 -4,1 6,1 8,1 9 5 16 9 SSE 1024,0 60 0 0,0
19.01.2021 06:00:00 -0,7 -2,6 -3,8 6,1 8,0 10 5 14 8 S 1024,5 60 0 0,0
19.01.2021 05:00:00 -1,0 -2,1 -4,2 6,2 8,1 10 6 14 8 SSE 1024,8 57 0 0,0
19.01.2021 04:00:00 -1,0 -2,1 -4,7 6,3 8,1 9 5 11 6 S 1025,6 53 0 0,0
19.01.2021 03:00:00 -0,8 -1,8 -5,4 6,4 8,1 9 5 15 8 S 1026,1 47 0 0,0
19.01.2021 02:00:00 -2,4 -3,4 -5,3 6,5 8,1 8 5 10 6 S 1027,0 30 0 0,0
19.01.2021 01:00:00 -1,0 -1,8 -5,2 6,5 8,0 8 4 12 6 SSE 1027,2 26 0 0,0
19.01.2021 00:00:00 -0,2 -1,2 -4,1 6,6 8,0 9 5 14 7 S 1027,3 26 0 0,0
18.01.2021 23:00:00 -0,1 -1,5 -3,9 6,7 8,0 10 6 15 8 S 1027,8 28 0 0,0
18.01.2021 22:00:00 0,7 -0,5 -4,3 6,7 8,0 9 5 14 8 S 1028,0 23 0 0,0
18.01.2021 21:00:00 0,6 0,2 -3,6 6,7 8,0 6 3 10 5 S 1028,1 15 0 0,0
18.01.2021 20:00:00 0,8 0,1 -3,0 6,7 8,0 5 3 10 5 S 1028,6 13 0 0,0
18.01.2021 19:00:00 2,2 1,0 -1,6 6,6 8,0 5 3 10 5 S 1028,8 39 0 0,0
18.01.2021 18:00:00 5,8 2,3 -0,4 6,5 8,0 5 3 10 5 NNE 1028,2 54 10 0,0
18.01.2021 17:00:00 7,6 2,3 5,9 6,5 8,0 7 4 11 6 N 1027,6 51 51 0,0
18.01.2021 16:00:00 10,2 1,3 16,1 6,4 8,0 2 1 8 5 N 1027,2 58 60 0,0
18.01.2021 15:00:00 8,7 0,6 16,3 6,3 8,0 6 3 14 8 N 1027,7 41 60 0,0
18.01.2021 14:00:00 8,8 2,8 16,2 6,3 8,0 4 2 13 7 NW 1028,2 42 60 0,0
18.01.2021 13:00:00 7,5 3,0 14,4 6,3 8,0 6 3 17 9 ENE 1029,3 58 60 0,0
18.01.2021 12:00:00 7,4 2,7 14,1 6,3 8,0 5 3 11 6 E 1030,2 44 60 0,0
18.01.2021 11:00:00 5,8 3,0 8,8 6,4 8,0 3 2 9 5 E 1030,6 40 60 0,0
18.01.2021 10:00:00 3,1 3,1 -0,2 6,4 8,0 3 1 8 4 SE 1030,6 28 48 0,0
18.01.2021 09:00:00 1,1 1,0 -0,8 6,5 8,0 3 2 10 6 ESE 1030,8 0,3 0 0,0
18.01.2021 08:00:00 2,1 2,1 0,8 6,5 8,0 4 2 6 4 S 1030,7 0,1 0 0,0
18.01.2021 07:00:00 2,3 2,2 -0,7 6,5 8,0 4 2 10 6 W 1030,8 0,1 0 0,0
18.01.2021 06:00:00 3,0 2,6 -0,1 6,5 8,0 0 0 4 2 N 1030,8 0,3 0 0,0
18.01.2021 05:00:00 4,2 3,8 1,3 6,5 8,0 3 2 5 3 SSE 1030,4 7 0 0,0
18.01.2021 04:00:00 4,5 3,9 3,2 6,5 8,0 2 1 5 3 WSW 1030,5 23 0 0,0
18.01.2021 03:00:00 4,7 3,8 4,1 6,5 8,0 2 1 9 5 SSW 1030,5 31 0 0,0
18.01.2021 02:00:00 5,1 4,7 4,6 6,5 8,0 2 1 9 5 E 1030,4 7 0 0,0
18.01.2021 01:00:00 5,2 4,9 4,8 6,5 8,0 3 1 8 4 E 1030,9 9 0 0,0
18.01.2021 00:00:00 5,5 5,2 5,1 6,5 8,0 3 1 4 2 NNW 1031,0 9 0 0,0
17.01.2021 23:00:00 5,6 5,3 5,2 6,5 8,0 2 1 5 3 NE 1031,0 4,2 0 0,0
17.01.2021 22:00:00 5,7 5,4 5,2 6,4 8,0 4 2 6 3 ESE 1030,9 11 0 0,0
17.01.2021 21:00:00 5,6 5,3 5,4 6,4 8,0 3 2 19 10 NNE 1031,0 3,1 0 0,2
17.01.2021 20:00:00 6,2 6,1 6,0 6,4 8,0 3 2 12 7 N 1030,9 1,4 0 0,6
17.01.2021 19:00:00 6,6 6,3 6,4 6,3 8,0 7 4 16 8 N 1030,5 1,5 0 0,2
17.01.2021 18:00:00 7,2 7,1 7,0 6,2 8,0 10 5 19 10 NE 1029,7 1,4 0 0,4
17.01.2021 17:00:00 8,3 8,0 8,3 6,1 8,0 13 7 19 11 NW 1028,6 3,5 0 0,0
17.01.2021 16:00:00 8,8 8,2 8,8 6,1 8,0 13 7 33 18 NNW 1028,2 1,9 0 0,2
17.01.2021 15:00:00 9,6 8,8 9,3 6,0 8,0 21 12 40 21 W 1027,6 3,1 0 0,6
17.01.2021 14:00:00 9,8 8,9 9,6 5,9 8,0 24 13 46 25 W 1027,8 6 0 0,4
17.01.2021 13:00:00 10,0 8,9 9,8 5,8 7,9 25 14 44 24 W 1027,8 3,6 0 0,6
17.01.2021 12:00:00 10,0 8,9 9,4 5,8 7,9 20 11 40 22 WSW 1028,1 9 0 0,6
17.01.2021 11:00:00 10,7 7,6 9,9 5,8 7,9 25 13 40 22 W 1027,9 12 0 0,0
17.01.2021 10:00:00 10,7 6,3 9,0 5,8 7,9 21 11 41 22 W 1027,3 59 0 0,0
17.01.2021 09:00:00 9,8 5,0 8,6 5,8 8,0 24 13 38 20 WSW 1027,0 60 0 0,0
17.01.2021 08:00:00 9,6 4,6 7,2 5,8 7,9 23 12 38 21 WSW 1027,0 60 0 0,0
17.01.2021 07:00:00 9,2 2,5 7,7 5,8 8,0 19 10 32 18 W 1026,9 60 0 0,0
17.01.2021 06:00:00 9,1 3,1 6,1 5,8 7,9 21 12 39 21 W 1026,8 60 0 0,0
17.01.2021 05:00:00 7,5 -2,0 5,5 5,8 7,9 9 5 30 16 WSW 1027,4 60 0 0,0
17.01.2021 04:00:00 8,0 -3,5 6,0 5,8 7,9 16 8 32 18 W 1027,7 60 0 0,0
17.01.2021 03:00:00 7,9 -3,0 5,7 5,8 8,0 15 8 25 14 WSW 1027,8 60 0 0,0
17.01.2021 02:00:00 7,8 -1,5 6,2 5,8 7,9 14 7 24 13 WSW 1028,1 60 0 0,0
17.01.2021 01:00:00 7,6 0,1 5,7 5,7 7,9 15 8 28 15 WSW 1028,3 60 0 0,0
17.01.2021 00:00:00 7,5 0,0 6,1 5,8 7,9 12 6 26 14 SW 1028,7 60 0 0,0
16.01.2021 23:00:00 7,8 0,0 5,4 5,8 7,9 12 6 21 11 WSW 1028,4 60 0 0,0
16.01.2021 22:00:00 6,1 2,2 3,7 5,7 7,9 9 5 16 9 SSW 1028,9 53 0 0,0
16.01.2021 21:00:00 5,2 2,7 3,1 5,7 7,9 9 5 13 7 SW 1029,0 50 0 0,0
16.01.2021 20:00:00 5,5 3,0 3,3 5,7 7,9 4 2 10 6 S 1029,3 47 0 0,0
16.01.2021 19:00:00 5,7 3,5 4,2 5,6 7,9 4 2 7 4 W 1029,3 26 0 0,0
16.01.2021 18:00:00 6,5 3,5 4,7 5,6 7,9 2 1 7 4 WNW 1029,0 15 0 0,0
16.01.2021 17:00:00 7,2 2,5 7,2 5,5 7,9 6 3 10 5 SW 1028,8 60 5 0,0
16.01.2021 16:00:00 7,2 2,5 8,1 5,5 7,9 6 3 16 8 WSW 1028,7 60 0 0,0
16.01.2021 15:00:00 7,1 3,0 8,4 5,5 7,9 9 5 18 10 SW 1028,8 47 0 0,0
16.01.2021 14:00:00 6,8 2,3 8,9 5,4 7,9 11 6 20 11 W 1029,4 49 26 0,0
16.01.2021 13:00:00 7,1 2,8 7,4 5,5 7,9 10 6 18 10 W 1029,9 47 31 0,0
16.01.2021 12:00:00 5,7 1,4 4,4 5,5 7,9 6 4 11 6 SW 1030,9 58 23 0,0
16.01.2021 11:00:00 3,2 -0,1 1,2 5,6 7,9 6 4 15 8 SSE 1031,7 54 22 0,0
16.01.2021 10:00:00 1,0 -0,5 -2,0 5,6 7,9 9 5 15 8 S 1031,8 54 37 0,0
16.01.2021 09:00:00 -0,5 -1,2 -4,1 5,7 7,9 10 5 14 8 SSE 1031,7 45 8 0,0
16.01.2021 08:00:00 -0,7 -1,1 -4,2 5,8 7,9 9 5 14 8 SSE 1031,5 47 0 0,0
16.01.2021 07:00:00 -0,8 -1,4 -4,3 5,7 7,9 11 6 13 7 S 1031,4 28 0 0,0
16.01.2021 06:00:00 -0,3 -0,4 - - - 8 4 11 6 SSE 1031,4 13 - 0,0
16.01.2021 05:00:00 -0,7 -1,3 -4,0 5,9 7,9 5 3 10 5 SSW 1031,7 0,5 0 0,0
16.01.2021 04:00:00 1,4 0,8 -2,3 5,9 7,9 6 3 11 6 SSE 1031,1 13 0 0,0
16.01.2021 03:00:00 2,4 1,7 -0,5 5,9 7,9 5 3 9 5 SSE 1031,0 15 0 0,0
16.01.2021 02:00:00 3,9 3,0 2,1 6,0 7,9 6 3 13 7 WSW 1030,9 31 0 0,0
16.01.2021 01:00:00 4,6 3,3 3,6 6,0 7,9 8 4 14 7 WSW 1031,1 20 0 0,0
16.01.2021 00:00:00 4,6 3,1 2,0 6,0 7,9 9 5 23 12 W 1031,3 29 0 0,8
15.01.2021 23:00:00 4,8 2,0 2,9 6,0 7,9 12 6 29 16 WSW 1031,0 60 0 0,0
15.01.2021 22:00:00 5,3 2,1 2,4 6,0 7,9 16 8 32 17 W 1030,8 16 0 0,0
15.01.2021 21:00:00 4,8 2,2 2,2 6,0 7,9 12 6 29 15 WSW 1030,6 57 0 0,0
15.01.2021 20:00:00 5,1 3,3 3,5 6,0 7,9 14 7 22 12 WSW 1030,4 45 0 0,0
15.01.2021 19:00:00 5,6 4,4 4,6 6,0 7,9 10 5 28 15 W 1030,4 4,4 0 0,6
15.01.2021 18:00:00 5,9 3,7 4,8 5,9 7,9 18 10 28 15 WSW 1029,9 13 25 0,6
15.01.2021 17:00:00 6,5 3,8 5,2 5,9 7,9 14 8 39 21 WSW 1029,3 41 22 1,0
15.01.2021 16:00:00 6,8 4,9 6,2 5,8 7,9 9 5 30 16 W 1029,3 5 0 0,2
15.01.2021 15:00:00 7,1 4,6 7,2 5,8 7,9 18 10 31 17 W 1029,0 8 0 0,0
15.01.2021 14:00:00 7,2 4,7 6,7 5,8 7,9 13 7 26 14 W 1029,3 50 0 0,0
15.01.2021 13:00:00 7,2 5,5 6,8 5,8 7,9 12 7 29 15 W 1029,8 53 0 0,2
15.01.2021 12:00:00 6,3 5,4 6,1 5,7 7,9 16 9 38 20 NW 1030,6 3,2 0 1,0
15.01.2021 11:00:00 6,9 6,2 6,5 5,7 7,9 16 9 35 19 W 1030,4 2,7 2 1,0
15.01.2021 10:00:00 7,2 6,0 5,6 5,7 7,9 15 8 37 20 WSW 1029,6 19 18 0,0
15.01.2021 09:00:00 6,4 5,0 5,4 5,7 7,9 18 10 30 16 WSW 1029,1 54 7 0,0
15.01.2021 08:00:00 6,6 5,4 5,8 5,7 7,9 19 10 33 18 WSW 1029,2 17 0 0,4
15.01.2021 07:00:00 6,8 5,7 5,7 5,7 7,8 11 6 29 16 WSW 1029,0 53 0 0,0
15.01.2021 06:00:00 6,9 6,2 6,1 5,6 7,9 17 9 33 18 W 1028,8 8 0 0,6
15.01.2021 05:00:00 7,2 6,0 5,6 5,6 7,9 17 9 34 18 WSW 1028,6 9 0 0,2
15.01.2021 04:00:00 6,7 5,5 5,2 5,6 7,9 15 8 27 15 WSW 1028,6 20 0 0,0
15.01.2021 03:00:00 7,2 6,1 6,5 5,6 7,9 17 9 34 18 W 1028,5 49 0 0,4
15.01.2021 02:00:00 7,5 6,3 6,2 5,5 7,9 18 10 32 17 WSW 1028,2 10 0 0,0
15.01.2021 01:00:00 7,8 6,4 6,4 5,5 7,8 21 11 37 20 W 1028,2 39 0 0,2
15.01.2021 00:00:00 7,7 6,3 6,3 5,5 7,9 19 10 37 20 WSW 1028,4 53 0 0,0
14.01.2021 23:00:00 8,2 7,1 7,4 5,4 7,9 23 12 44 24 W 1028,2 20 0 0,2
14.01.2021 22:00:00 8,6 7,1 7,4 5,4 7,9 24 13 43 23 W 1027,6 60 0 0,4
14.01.2021 21:00:00 8,6 6,2 - - - 24 13 39 21 WSW 1027,2 60 - 0,0
14.01.2021 20:00:00 7,3 4,8 5,4 5,3 7,9 21 11 34 18 WSW 1026,9 55 0 0,2
14.01.2021 19:00:00 7,4 4,7 5,9 5,2 7,9 16 9 34 19 WSW 1026,8 18 0 0,0
14.01.2021 18:00:00 7,7 4,6 7,2 5,2 7,9 17 9 32 17 WSW 1027,0 50 15 0,0
14.01.2021 17:00:00 8,6 4,4 8,4 5,1 7,9 18 10 34 18 W 1027,4 59 28 0,0
14.01.2021 16:00:00 9,1 4,1 9,0 5,0 7,9 16 9 40 22 W 1027,2 57 8 0,0
14.01.2021 15:00:00 8,8 4,8 10,3 4,9 7,9 20 11 36 20 W 1027,4 43 3 0,0
14.01.2021 14:00:00 9,0 4,4 10,8 4,9 7,9 22 12 47 26 W 1027,9 40 4 0,0
14.01.2021 13:00:00 8,9 3,5 9,6 4,9 7,9 12 6 20 11 W 1028,9 55 0 0,0

tt = temperature
td = dewpoint
tt 5cm = temperature 5cm
tt -20cm = temperature -20cm
tt -100cm = temperature -100cm
ff = wind speed
fx = gusts
dd = wind direction
ppp = reduced air pressure
vv = visibility
sd = sunshine duration
rr = precipitation

Next stations